Gastonia, NC

4:18 PM EDT on August 30, 2016 (GMT -0400)
Gastonia Municipal

Weather History for KAKH - June, 2013

Change the Weather History Date:

Sunday, June 16, 2013

  Actual Average (KCLT) Record (KCLT)
Temperature  
Mean Temperature 74 °F 76 °F  
Max Temperature 84 °F 86 °F 99 °F (2015)
Min Temperature 63 °F 65 °F 52 °F (1961)
Degree Days  
Heating Degree Days 0 0  
Month to date heating degree days 0  
Since 1 June heating degree days 0  
Since 1 July heating degree days 3385  
Cooling Degree Days 8 11  
Month to date cooling degree days 143  
Year to date cooling degree days 306  
Since 1 June cooling degree days 143  
Growing Degree Days 24 (Base 50)    
Moisture  
Dew Point 65 °F    
Average Humidity 74    
Maximum Humidity 93    
Minimum Humidity 53    
Precipitation  
Precipitation 0.00 in 0.13 in 3.32 in (1979)
Month to date precipitation 2.10  
Year to date precipitation 19.06  
Snow  
Snow 0.00 in 0.00 in 0.00 in ()
Month to date snowfall 0.0  
Since 1 June snowfall 0.0  
Since 1 July snowfall 4.3  
Snow Depth -    
Sea Level Pressure  
Sea Level Pressure 30.09 in    
Wind  
Wind Speed 4 mph (SSW)    
Max Wind Speed 14 mph    
Max Gust Speed 18 mph    
Visibility 10 miles    
Events      
T = Trace of Precipitation, MM = Missing Value Source: NWS Daily Summary

Daily Weather History Graph

Daily Weather History Graph

Search for Another Location

Airport or City:

Trip Planner

Search our weather history database for the weather conditions in past years. The results will help you decide how hot, cold, wet, or windy it might be!

Date:

Astronomy

Jun. 16, 2013 Rise Set
Actual Time 6:09 AM EDT 8:41 PM EDT
Civil Twilight 5:39 AM EDT 9:10 PM EDT
Nautical Twilight 5:03 AM EDT 9:47 PM EDT
Astronomical Twilight 4:22 AM EDT 10:28 PM EDT
Moon 1:28 PM EDT (6/16) 12:59 AM EDT (6/16)
Length of Visible Light 15h 31m
Length of Day
14h 31m
Waxing Crescent, 49% of the Moon is Illuminated
Jun 16
Waxing Crescent
Jun 16
First Quarter
Jun 23
Full
Jun 30
Last Quarter
Jul 8
New

Hourly Weather History & Observations

Time (EDT) Temp. Heat Index Dew Point Humidity Pressure Visibility Wind Dir Wind Speed Gust Speed Precip Events Conditions
12:54 AM 63.0 °F - 61.0 °F 93% 30.11 in 9.0 mi Calm Calm - N/A   Clear
1:54 AM 64.9 °F - 61.0 °F 87% 30.11 in 10.0 mi South 5.8 mph - N/A   Clear
2:54 AM 66.0 °F - 62.1 °F 87% 30.09 in 10.0 mi SSW 5.8 mph - N/A   Clear
3:54 AM 66.0 °F - 62.1 °F 87% 30.09 in 10.0 mi SSW 4.6 mph - N/A   Clear
4:54 AM 66.0 °F - 61.0 °F 84% 30.10 in 10.0 mi Calm Calm - N/A   Mostly Cloudy
5:54 AM 64.0 °F - 61.0 °F 90% 30.12 in 10.0 mi SSW 3.5 mph - N/A   Clear
6:54 AM 64.9 °F - 62.1 °F 90% 30.14 in 10.0 mi WSW 3.5 mph - N/A   Clear
7:54 AM 69.1 °F - 63.0 °F 81% 30.14 in 10.0 mi Variable 3.5 mph - N/A   Clear
8:54 AM 73.0 °F - 64.9 °F 76% 30.15 in 10.0 mi SW 8.1 mph - N/A   Clear
9:54 AM 75.0 °F - 66.0 °F 73% 30.14 in 10.0 mi WSW 13.8 mph 18.4 mph N/A   Clear
10:54 AM 78.1 °F - 66.9 °F 68% 30.13 in 10.0 mi Variable 6.9 mph - N/A   Clear
11:54 AM 80.1 °F 82.3 °F 66.9 °F 64% 30.12 in 10.0 mi SW 8.1 mph - N/A   Clear
12:54 PM 82.0 °F 84.5 °F 66.9 °F 60% 30.10 in 10.0 mi SSW 4.6 mph - N/A   Partly Cloudy
1:54 PM 84.0 °F 86.5 °F 66.9 °F 56% 30.08 in 10.0 mi WSW 10.4 mph - N/A   Partly Cloudy
2:54 PM 84.0 °F 86.5 °F 66.9 °F 56% 30.06 in 10.0 mi Variable 6.9 mph - N/A   Partly Cloudy
3:54 PM 84.9 °F 87.1 °F 66.0 °F 53% 30.04 in 10.0 mi South 6.9 mph - N/A   Clear
4:54 PM 84.9 °F 87.1 °F 66.0 °F 53% 30.04 in 10.0 mi Variable 5.8 mph - N/A   Partly Cloudy
5:54 PM 82.9 °F 84.4 °F 64.0 °F 53% 30.04 in 10.0 mi SSW 9.2 mph - N/A   Clear
6:54 PM 82.0 °F 83.8 °F 64.9 °F 56% 30.04 in 10.0 mi SSW 5.8 mph - N/A   Clear
7:54 PM 78.1 °F - 64.9 °F 64% 30.03 in 10.0 mi South 3.5 mph - N/A   Clear
8:54 PM 73.0 °F - 66.0 °F 79% 30.03 in 10.0 mi Calm Calm - N/A   Clear
9:54 PM 72.0 °F - 66.9 °F 84% 30.04 in 10.0 mi Calm Calm - 0.00 in   Clear
10:54 PM 71.1 °F - 66.0 °F 84% 30.05 in 10.0 mi Calm Calm - N/A   Clear
11:54 PM 71.1 °F - 66.9 °F 87% 30.05 in 10.0 mi SSW 3.5 mph - N/A   Clear